| time (UTC) | temp F | wind direction | speed knots | gust knots | rain 1hr in | rain 24hr in | rain mn in | humidity % | barometer mb |
| 20260507134607 | 54 | 96 | 9.6 | 14.8 | 0.00 | 0.00 | 0.00 | 71 | 1015.8 |
| 20260507133103 | 54 | 81 | 10.4 | 14.8 | 0.00 | 0.00 | 0.00 | 71 | 1015.5 |
| 20260507131507 | 54 | 69 | 10.4 | 13.9 | 0.00 | 0.00 | 0.00 | 71 | 1015.3 |
| 20260507130005 | 54 | 109 | 12.2 | 14.8 | 0.00 | 0.00 | 0.00 | 70 | 1014.9 |
| 20260507124504 | 54 | 88 | 11.3 | 15.6 | 0.00 | 0.00 | 0.00 | 70 | 1014.7 |
| 20260507123106 | 54 | 72 | 13.9 | 17.4 | 0.00 | 0.00 | 0.00 | 69 | 1014.3 |
| 20260507121601 | 54 | 80 | 13.9 | 18.2 | 0.00 | 0.00 | 0.00 | 69 | 1014.3 |
| 20260507120057 | 54 | 82 | 10.4 | 14.8 | 0.00 | 0.00 | 0.00 | 69 | 1013.9 |
| 20260507114556 | 54 | 78 | 10.4 | 16.5 | 0.00 | 0.00 | 0.00 | 69 | 1013.8 |
| 20260507113127 | 54 | 96 | 13.0 | 22.6 | 0.00 | 0.00 | 0.00 | 68 | 1013.4 |
| 20260507111539 | 54 | 94 | 15.6 | 21.7 | 0.00 | 0.00 | 0.00 | 68 | 1013.0 |
| 20260507110040 | 55 | 98 | 13.0 | 19.1 | 0.00 | 0.00 | 0.00 | 67 | 1012.9 |
| 20260507104536 | 55 | 84 | 14.8 | 19.1 | 0.00 | 0.00 | 0.00 | 66 | 1012.9 |
| 20260507103035 | 55 | 99 | 14.8 | 19.1 | 0.00 | 0.00 | 0.00 | 66 | 1012.5 |
| 20260507101545 | 54 | 80 | 7.8 | 11.3 | 0.00 | 0.00 | 0.00 | 66 | 1012.6 |
| 20260507100053 | 52 | 36 | 6.1 | 9.6 | 0.00 | 0.00 | 0.00 | 63 | 1012.6 |
| 20260507094542 | 52 | 349 | 10.4 | 13.0 | 0.00 | 0.00 | 0.00 | 61 | 1012.7 |
| 20260507093040 | 53 | 10 | 9.6 | 16.5 | 0.00 | 0.00 | 0.00 | 60 | 1012.5 |
| 20260507091541 | 53 | 9 | 11.3 | 15.6 | 0.00 | 0.00 | 0.00 | 60 | 1012.6 |
| 20260507090035 | 53 | 360 | 9.6 | 16.5 | 0.00 | 0.00 | 0.00 | 60 | 1012.3 |
| 20260507084548 | 54 | 350 | 14.8 | 20.0 | 0.00 | 0.00 | 0.00 | 59 | 1012.3 |
| 20260507083032 | 55 | 325 | 11.3 | 18.2 | 0.00 | 0.00 | 0.00 | 57 | 1011.6 |
| 20260507081545 | 56 | 335 | 13.0 | 18.2 | 0.00 | 0.00 | 0.00 | 55 | 1011.6 |
| 20260507080041 | 57 | 315 | 11.3 | 18.2 | 0.00 | 0.00 | 0.00 | 52 | 1011.6 |
| 20260507074536 | 59 | 308 | 10.4 | 13.9 | 0.00 | 0.00 | 0.00 | 48 | 1011.6 |
| 20260507073033 | 62 | 305 | 11.3 | 16.5 | 0.00 | 0.00 | 0.00 | 41 | 1011.4 |
| 20260507071516 | 62 | 132 | 7.0 | 10.4 | 0.00 | 0.00 | 0.00 | 36 | 1011.7 |
| 20260507070016 | 63 | 329 | 15.6 | 21.7 | 0.00 | 0.00 | 0.00 | 34 | 1010.3 |
| 20260507064504 | 62 | 43 | 1.7 | 7.0 | 0.00 | 0.00 | 0.00 | 37 | 1009.6 |
| 20260507063059 | 64 | 34 | 7.8 | 9.6 | 0.00 | 0.00 | 0.00 | 33 | 1009.3 |
| 20260507061503 | 66 | 35 | 7.8 | 9.6 | 0.00 | 0.00 | 0.00 | 31 | 1009.2 |
| 20260507060100 | 68 | 38 | 2.6 | 5.2 | 0.00 | 0.00 | 0.00 | 26 | 1009.0 |
| 20260507054559 | 69 | 38 | 3.5 | 4.3 | 0.00 | 0.00 | 0.00 | 25 | 1009.1 |
| 20260507053057 | 71 | 38 | 4.3 | 8.7 | 0.00 | 0.00 | 0.00 | 22 | 1009.0 |
| 20260507051606 | 71 | 55 | 6.1 | 7.8 | 0.00 | 0.00 | 0.00 | 22 | 1009.1 |
| 20260507050107 | 72 | 56 | 3.5 | 5.2 | 0.00 | 0.00 | 0.00 | 22 | 1008.9 |
| 20260507044556 | 71 | 56 | 2.6 | 4.3 | 0.00 | 0.00 | 0.00 | 23 | 1008.8 |
| 20260507043051 | 70 | 278 | 2.6 | 3.5 | 0.00 | 0.00 | 0.00 | 25 | 1008.7 |
| 20260507041545 | 70 | 278 | 1.7 | 2.6 | 0.00 | 0.00 | 0.00 | 25 | 1008.5 |
| 20260507040047 | 71 | 278 | 0.0 | 2.6 | 0.00 | 0.00 | 0.00 | 25 | 1008.4 |
| 20260507034543 | 71 | 278 | 1.7 | 3.5 | 0.00 | 0.00 | 0.00 | 24 | 1008.2 |
| 20260507033046 | 72 | 278 | 6.1 | 7.8 | 0.00 | 0.00 | 0.00 | 23 | 1008.0 |
| 20260507031546 | 73 | 274 | 7.0 | 8.7 | 0.00 | 0.00 | 0.00 | 23 | 1007.7 |
| 20260507030046 | 74 | 256 | 7.8 | 10.4 | 0.00 | 0.00 | 0.00 | 22 | 1007.5 |
| 20260507024547 | 74 | 254 | 9.6 | 11.3 | 0.00 | 0.00 | 0.00 | 21 | 1007.2 |
| 20260507023044 | 75 | 260 | 9.6 | 10.4 | 0.00 | 0.00 | 0.00 | 20 | 1007.0 |
| 20260507021548 | 75 | 256 | 7.8 | 9.6 | 0.00 | 0.00 | 0.00 | 20 | 1006.8 |
| 20260507020037 | 76 | 258 | 7.8 | 10.4 | 0.00 | 0.00 | 0.00 | 19 | 1006.6 |
| 20260507014536 | 77 | 257 | 7.8 | 11.3 | 0.00 | 0.00 | 0.00 | 18 | 1006.3 |
| 20260507013037 | 79 | 285 | 9.6 | 12.2 | 0.00 | 0.00 | 0.00 | 17 | 1005.9 |
| 20260507011539 | 80 | 272 | 9.6 | 18.2 | 0.00 | 0.00 | 0.00 | 17 | 1005.7 |
| 20260507010042 | 80 | 278 | 11.3 | 17.4 | 0.00 | 0.00 | 0.00 | 17 | 1005.5 |
| 20260507004536 | 81 | 266 | 12.2 | 23.5 | 0.00 | 0.00 | 0.00 | 16 | 1005.4 |
| 20260507003035 | 81 | 248 | 14.8 | 20.9 | 0.00 | 0.00 | 0.00 | 16 | 1005.4 |
| 20260507001546 | 81 | 267 | 15.6 | 24.3 | 0.00 | 0.00 | 0.00 | 16 | 1005.3 |
| 20260507000045 | 81 | 261 | 14.8 | 23.5 | 0.00 | 0.00 | 0.00 | 16 | 1005.1 |
| 20260506234557 | 81 | 260 | 12.2 | 23.5 | 0.00 | 0.00 | 0.00 | 17 | 1005.0 |
| 20260506233044 | 81 | 262 | 13.0 | 22.6 | 0.00 | 0.00 | 0.00 | 16 | 1005.0 |
| 20260506231537 | 81 | 275 | 20.0 | 27.8 | 0.00 | 0.00 | 0.00 | 16 | 1004.9 |
| 20260506230036 | 82 | 242 | 18.2 | 24.3 | 0.00 | 0.00 | 0.00 | 15 | 1005.0 |
| 20260506224536 | 82 | 251 | 19.1 | 26.1 | 0.00 | 0.00 | 0.00 | 14 | 1004.8 |
| 20260506223034 | 81 | 274 | 17.4 | 24.3 | 0.00 | 0.00 | 0.00 | 16 | 1004.8 |
| 20260506221527 | 82 | 264 | 13.0 | 26.1 | 0.00 | 0.00 | 0.00 | 16 | 1004.8 |
| 20260506220034 | 81 | 241 | 17.4 | 21.7 | 0.00 | 0.00 | 0.00 | 16 | 1004.9 |
| 20260506214527 | 81 | 259 | 15.6 | 25.2 | 0.00 | 0.00 | 0.00 | 17 | 1005.0 |
| 20260506213030 | 82 | 246 | 17.4 | 25.2 | 0.00 | 0.00 | 0.00 | 17 | 1005.2 |
| 20260506211541 | 80 | 250 | 15.6 | 24.3 | 0.00 | 0.00 | 0.00 | 18 | 1005.2 |
| 20260506210041 | 80 | 244 | 17.4 | 22.6 | 0.00 | 0.00 | 0.00 | 18 | 1005.4 |
| 20260506204550 | 80 | 248 | 13.9 | 21.7 | 0.00 | 0.00 | 0.00 | 19 | 1005.8 |
| 20260506203039 | 80 | 273 | 15.6 | 23.5 | 0.00 | 0.00 | 0.00 | 18 | 1006.0 |
| 20260506201542 | 79 | 262 | 9.6 | 24.3 | 0.00 | 0.00 | 0.00 | 20 | 1006.1 |
| 20260506200055 | 79 | 222 | 13.0 | 19.1 | 0.00 | 0.00 | 0.00 | 19 | 1006.1 |
| 20260506194544 | 78 | 196 | 10.4 | 15.6 | 0.00 | 0.00 | 0.00 | 22 | 1006.2 |
| 20260506193036 | 77 | 247 | 5.2 | 16.5 | 0.00 | 0.00 | 0.00 | 25 | 1006.5 |
| 20260506191531 | 77 | 289 | 7.0 | 11.3 | 0.00 | 0.00 | 0.00 | 24 | 1006.8 |
| 20260506190029 | 76 | 240 | 6.1 | 15.6 | 0.00 | 0.00 | 0.00 | 25 | 1007.0 |
| 20260506184528 | 76 | 254 | 9.6 | 15.6 | 0.00 | 0.00 | 0.00 | 25 | 1007.2 |
| 20260506183026 | 75 | 220 | 6.1 | 9.6 | 0.00 | 0.00 | 0.00 | 26 | 1007.4 |
| 20260506181537 | 75 | 255 | 7.8 | 15.6 | 0.00 | 0.00 | 0.00 | 26 | 1007.7 |
| 20260506180036 | 75 | 297 | 5.2 | 10.4 | 0.00 | 0.00 | 0.00 | 26 | 1007.9 |
| 20260506174535 | 74 | 311 | 4.3 | 13.0 | 0.00 | 0.00 | 0.00 | 27 | 1008.1 |
| 20260506173033 | 75 | 342 | 7.0 | 13.0 | 0.00 | 0.00 | 0.00 | 27 | 1008.1 |
| 20260506171534 | 74 | 292 | 5.2 | 13.9 | 0.00 | 0.00 | 0.00 | 26 | 1008.2 |
| 20260506170020 | 74 | 322 | 9.6 | 12.2 | 0.00 | 0.00 | 0.00 | 27 | 1008.2 |
| 20260506164520 | 74 | 300 | 10.4 | 14.8 | 0.00 | 0.00 | 0.00 | 27 | 1008.2 |
| 20260506163017 | 73 | 325 | 11.3 | 19.1 | 0.00 | 0.00 | 0.00 | 29 | 1008.1 |
| 20260506161521 | 73 | 314 | 11.3 | 18.2 | 0.00 | 0.00 | 0.00 | 28 | 1007.9 |
| 20260506160021 | 73 | 314 | 13.9 | 20.0 | 0.00 | 0.00 | 0.00 | 29 | 1007.7 |
| 20260506154516 | 72 | 306 | 14.8 | 19.1 | 0.00 | 0.00 | 0.00 | 30 | 1007.6 |
| 20260506153011 | 72 | 329 | 13.0 | 16.5 | 0.00 | 0.00 | 0.00 | 29 | 1007.6 |
| 20260506151506 | 72 | 360 | 9.6 | 14.8 | 0.00 | 0.00 | 0.00 | 31 | 1007.5 |
| 20260506150008 | 71 | 342 | 9.6 | 15.6 | 0.00 | 0.00 | 0.00 | 32 | 1007.5 |
| 20260506144503 | 69 | 33 | 7.8 | 12.2 | 0.00 | 0.00 | 0.00 | 36 | 1007.4 |
| 20260506143010 | 68 | 355 | 8.7 | 12.2 | 0.00 | 0.00 | 0.00 | 36 | 1007.3 |
| 20260506141510 | 67 | 355 | 7.8 | 11.3 | 0.00 | 0.00 | 0.00 | 37 | 1007.3 |
| 20260506140010 | 66 | 355 | 10.4 | 13.0 | 0.00 | 0.00 | 0.00 | 37 | 1007.4 |